| time (UTC) | temp F | wind direction | speed knots | gust knots | rain 1hr in | rain 24hr in | rain mn in | humidity % | barometer mb |
| 20260507214607 | 47 | 0.0 | 0.0 | 0.00 | 0.00 | 0.00 | 86 | 1016.1 | |
| 20260507213607 | 47 | 0.0 | 0.0 | 0.00 | 0.00 | 0.00 | 86 | 1015.9 | |
| 20260507212608 | 47 | 0.0 | 0.0 | 0.00 | 0.00 | 0.00 | 86 | 1015.9 | |
| 20260507211608 | 47 | 0.0 | 0.0 | 0.00 | 0.00 | 0.00 | 87 | 1015.8 | |
| 20260507210608 | 47 | 0.0 | 0.0 | 0.00 | 0.00 | 0.00 | 87 | 1015.8 | |
| 20260507205607 | 47 | 0.0 | 0.0 | 0.00 | 0.00 | 0.00 | 86 | 1015.8 | |
| 20260507204607 | 47 | 0.0 | 0.0 | 0.00 | 0.00 | 0.00 | 87 | 1015.5 | |
| 20260507203607 | 47 | 0.0 | 0.0 | 0.00 | 0.00 | 0.00 | 87 | 1015.7 | |
| 20260507202608 | 47 | 0.0 | 0.0 | 0.00 | 0.00 | 0.00 | 88 | 1015.6 | |
| 20260507201607 | 46 | 0.0 | 0.0 | 0.00 | 0.00 | 0.00 | 88 | 1015.4 | |
| 20260507200608 | 46 | 0.0 | 0.0 | 0.00 | 0.00 | 0.00 | 88 | 1015.3 | |
| 20260507195608 | 46 | 0.0 | 0.0 | 0.00 | 0.00 | 0.00 | 88 | 1015.3 | |
| 20260507194608 | 46 | 0.0 | 0.0 | 0.00 | 0.00 | 0.00 | 87 | 1015.1 | |
| 20260507193607 | 47 | 0.0 | 0.0 | 0.00 | 0.00 | 0.00 | 87 | 1014.9 | |
| 20260507192608 | 47 | 0.0 | 0.0 | 0.00 | 0.00 | 0.00 | 86 | 1014.8 | |
| 20260507191608 | 47 | 0.0 | 0.0 | 0.00 | 0.00 | 0.00 | 86 | 1014.5 | |
| 20260507190607 | 48 | 0.0 | 0.0 | 0.00 | 0.00 | 0.00 | 85 | 1014.5 | |
| 20260507185608 | 49 | 0.0 | 0.0 | 0.00 | 0.00 | 0.00 | 82 | 1014.3 | |
| 20260507184608 | 49 | 0.0 | 0.0 | 0.00 | 0.00 | 0.00 | 83 | 1014.2 | |
| 20260507183608 | 50 | 0.0 | 0.0 | 0.00 | 0.00 | 0.00 | 84 | 1014.2 | |
| 20260507182607 | 51 | 0.0 | 0.0 | 0.00 | 0.00 | 0.00 | 81 | 1014.1 | |
| 20260507181607 | 51 | 0.0 | 0.0 | 0.00 | 0.00 | 0.00 | 81 | 1014.0 | |
| 20260507180607 | 52 | 0.0 | 0.0 | 0.00 | 0.00 | 0.00 | 79 | 1013.9 | |
| 20260507175607 | 53 | 0.0 | 0.0 | 0.00 | 0.00 | 0.00 | 78 | 1013.8 | |
| 20260507174607 | 53 | 0.0 | 0.0 | 0.00 | 0.00 | 0.00 | 78 | 1014.0 | |
| 20260507173607 | 53 | 0.0 | 0.0 | 0.00 | 0.00 | 0.00 | 75 | 1013.8 | |
| 20260507172607 | 54 | 0.0 | 0.0 | 0.00 | 0.00 | 0.00 | 78 | 1013.6 | |
| 20260507171608 | 55 | 0.0 | 0.0 | 0.00 | 0.00 | 0.00 | 73 | 1013.5 | |
| 20260507170607 | 55 | 0.0 | 0.0 | 0.00 | 0.00 | 0.00 | 76 | 1013.3 | |
| 20260507165607 | 55 | 0.0 | 0.0 | 0.00 | 0.00 | 0.00 | 74 | 1013.3 | |
| 20260507164608 | 55 | 0.0 | 0.0 | 0.00 | 0.00 | 0.00 | 74 | 1013.1 | |
| 20260507163607 | 55 | 0.0 | 0.0 | 0.00 | 0.00 | 0.00 | 69 | 1013.2 | |
| 20260507162607 | 56 | 0.0 | 0.0 | 0.00 | 0.00 | 0.00 | 61 | 1013.1 | |
| 20260507161608 | 56 | 0.0 | 0.0 | 0.00 | 0.00 | 0.00 | 59 | 1013.0 | |
| 20260507160608 | 57 | 0.0 | 0.0 | 0.00 | 0.00 | 0.00 | 60 | 1012.9 | |
| 20260507155609 | 57 | 0.0 | 0.0 | 0.00 | 0.00 | 0.00 | 64 | 1013.0 | |
| 20260507154609 | 57 | 0.0 | 0.0 | 0.00 | 0.00 | 0.00 | 61 | 1012.9 | |
| 20260507153610 | 58 | 0.0 | 0.0 | 0.00 | 0.00 | 0.00 | 61 | 1012.9 | |
| 20260507152609 | 59 | 0.0 | 0.0 | 0.00 | 0.00 | 0.00 | 62 | 1012.9 | |
| 20260507151616 | 58 | 0.0 | 0.0 | 0.00 | 0.00 | 0.00 | 62 | 1012.9 | |
| 20260507150607 | 58 | 0.0 | 0.0 | 0.00 | 0.00 | 0.00 | 61 | 1013.0 | |
| 20260507145607 | 58 | 0.0 | 0.0 | 0.00 | 0.00 | 0.00 | 65 | 1012.9 | |
| 20260507144607 | 57 | 0.0 | 0.0 | 0.00 | 0.00 | 0.00 | 66 | 1013.0 | |
| 20260507143611 | 58 | 0.0 | 0.0 | 0.00 | 0.00 | 0.00 | 64 | 1012.9 | |
| 20260507142606 | 57 | 0.0 | 0.0 | 0.00 | 0.00 | 0.00 | 64 | 1012.9 | |
| 20260507141606 | 57 | 0.0 | 0.0 | 0.00 | 0.00 | 0.00 | 63 | 1013.1 | |
| 20260507140606 | 57 | 0.0 | 0.0 | 0.00 | 0.00 | 0.00 | 64 | 1012.9 | |
| 20260507135606 | 57 | 0.0 | 0.0 | 0.00 | 0.00 | 0.00 | 69 | 1012.9 | |
| 20260507134606 | 57 | 0.0 | 0.0 | 0.00 | 0.00 | 0.00 | 68 | 1012.9 | |
| 20260507133606 | 57 | 0.0 | 0.0 | 0.00 | 0.00 | 0.00 | 68 | 1012.9 | |
| 20260507132607 | 57 | 0.0 | 0.0 | 0.00 | 0.00 | 0.00 | 69 | 1012.9 | |
| 20260507131606 | 57 | 0.0 | 0.0 | 0.00 | 0.00 | 0.00 | 67 | 1012.8 | |
| 20260507130606 | 58 | 0.0 | 0.0 | 0.00 | 0.00 | 0.00 | 69 | 1012.8 | |
| 20260507125606 | 58 | 0.0 | 0.0 | 0.00 | 0.00 | 0.00 | 70 | 1012.8 | |
| 20260507124606 | 57 | 0.0 | 0.0 | 0.00 | 0.00 | 0.00 | 67 | 1012.6 | |
| 20260507123606 | 59 | 0.0 | 0.0 | 0.00 | 0.00 | 0.00 | 64 | 1012.5 | |
| 20260507122606 | 59 | 0.0 | 0.0 | 0.00 | 0.00 | 0.00 | 64 | 1012.5 | |
| 20260507121606 | 59 | 0.0 | 0.0 | 0.00 | 0.00 | 0.00 | 63 | 1012.3 | |
| 20260507120606 | 60 | 0.0 | 0.0 | 0.00 | 0.00 | 0.00 | 65 | 1012.2 | |
| 20260507115606 | 59 | 0.0 | 0.0 | 0.00 | 0.00 | 0.00 | 69 | 1012.3 | |
| 20260507114606 | 58 | 0.0 | 0.0 | 0.00 | 0.00 | 0.00 | 68 | 1012.2 | |
| 20260507113606 | 58 | 0.0 | 0.0 | 0.00 | 0.00 | 0.00 | 69 | 1012.2 | |
| 20260507112606 | 58 | 0.0 | 0.0 | 0.00 | 0.00 | 0.00 | 68 | 1012.2 | |
| 20260507111606 | 58 | 0.0 | 0.0 | 0.00 | 0.00 | 0.00 | 68 | 1012.1 | |
| 20260507110606 | 57 | 0.0 | 0.0 | 0.00 | 0.00 | 0.00 | 72 | 1012.2 | |
| 20260507105606 | 57 | 0.0 | 0.0 | 0.00 | 0.00 | 0.00 | 72 | 1011.9 | |
| 20260507104606 | 56 | 0.0 | 0.0 | 0.00 | 0.00 | 0.00 | 77 | 1012.0 | |
| 20260507103606 | 56 | 0.0 | 0.0 | 0.00 | 0.00 | 0.00 | 75 | 1012.0 | |
| 20260507102606 | 55 | 0.0 | 0.0 | 0.00 | 0.00 | 0.00 | 75 | 1011.8 | |
| 20260507101606 | 55 | 0.0 | 0.0 | 0.00 | 0.00 | 0.00 | 77 | 1012.0 | |
| 20260507100606 | 56 | 0.0 | 0.0 | 0.00 | 0.00 | 0.00 | 80 | 1012.0 | |
| 20260507095606 | 56 | 0.0 | 0.0 | 0.00 | 0.00 | 0.00 | 79 | 1012.0 | |
| 20260507094606 | 55 | 0.0 | 0.0 | 0.00 | 0.00 | 0.00 | 83 | 1011.9 | |
| 20260507093606 | 53 | 0.0 | 0.0 | 0.00 | 0.00 | 0.00 | 86 | 1011.8 | |
| 20260507092606 | 53 | 0.0 | 0.0 | 0.00 | 0.00 | 0.00 | 85 | 1011.8 | |
| 20260507091606 | 53 | 0.0 | 0.0 | 0.00 | 0.00 | 0.00 | 86 | 1011.6 | |
| 20260507090606 | 53 | 0.0 | 0.0 | 0.00 | 0.00 | 0.00 | 86 | 1011.4 | |
| 20260507085606 | 53 | 0.0 | 0.0 | 0.00 | 0.00 | 0.00 | 86 | 1011.3 | |
| 20260507084606 | 53 | 0.0 | 0.0 | 0.00 | 0.00 | 0.00 | 85 | 1011.3 | |
| 20260507083606 | 53 | 0.0 | 0.0 | 0.00 | 0.00 | 0.00 | 84 | 1011.0 | |
| 20260507082606 | 53 | 0.0 | 0.0 | 0.00 | 0.00 | 0.00 | 87 | 1011.1 | |
| 20260507081606 | 53 | 0.0 | 0.0 | 0.00 | 0.00 | 0.00 | 85 | 1011.0 | |
| 20260507080606 | 53 | 0.0 | 0.0 | 0.00 | 0.00 | 0.00 | 86 | 1011.0 | |
| 20260507075606 | 53 | 0.0 | 0.0 | 0.00 | 0.00 | 0.00 | 87 | 1010.9 | |
| 20260507074606 | 53 | 0.0 | 0.0 | 0.00 | 0.00 | 0.00 | 87 | 1010.7 | |
| 20260507073606 | 53 | 0.0 | 0.0 | 0.00 | 0.00 | 0.00 | 88 | 1010.6 | |
| 20260507072606 | 53 | 0.0 | 0.0 | 0.00 | 0.00 | 0.00 | 87 | 1010.5 | |
| 20260507071606 | 53 | 0.0 | 0.0 | 0.00 | 0.00 | 0.00 | 87 | 1010.4 | |
| 20260507070606 | 53 | 0.0 | 0.0 | 0.00 | 0.00 | 0.00 | 87 | 1010.3 | |
| 20260507065606 | 53 | 0.0 | 0.0 | 0.00 | 0.00 | 0.00 | 87 | 1010.3 | |
| 20260507064606 | 53 | 0.0 | 0.0 | 0.00 | 0.00 | 0.00 | 90 | 1010.3 | |
| 20260507063606 | 53 | 0.0 | 0.0 | 0.00 | 0.00 | 0.00 | 90 | 1010.1 | |
| 20260507062606 | 53 | 0.0 | 0.0 | 0.00 | 0.00 | 0.00 | 89 | 1009.9 | |
| 20260507061606 | 52 | 0.0 | 0.0 | 0.00 | 0.00 | 0.00 | 90 | 1009.8 | |
| 20260507060606 | 52 | 0.0 | 0.0 | 0.00 | 0.00 | 0.00 | 91 | 1009.7 | |
| 20260507055606 | 52 | 0.0 | 0.0 | 0.00 | 0.00 | 0.00 | 91 | 1009.5 | |
| 20260507054606 | 52 | 0.0 | 0.0 | 0.00 | 0.00 | 0.00 | 91 | 1009.5 | |
| 20260507053606 | 52 | 0.0 | 0.0 | 0.00 | 0.00 | 0.00 | 91 | 1009.5 | |
| 20260507052606 | 52 | 0.0 | 0.0 | 0.00 | 0.00 | 0.00 | 93 | 1009.3 | |
| 20260507051606 | 52 | 0.0 | 0.0 | 0.00 | 0.00 | 0.00 | 93 | 1009.2 | |
| 20260507050606 | 52 | 0.0 | 0.0 | 0.00 | 0.00 | 0.00 | 93 | 1009.1 | |
| 20260507045606 | 52 | 0.0 | 0.0 | 0.00 | 0.00 | 0.00 | 93 | 1009.0 | |
| 20260507044606 | 52 | 0.0 | 0.0 | 0.00 | 0.00 | 0.00 | 93 | 1008.8 | |
| 20260507043606 | 52 | 0.0 | 0.0 | 0.00 | 0.00 | 0.00 | 92 | 1008.8 | |
| 20260507042611 | 52 | 0.0 | 0.0 | 0.00 | 0.00 | 0.00 | 92 | 1008.6 | |
| 20260507040607 | 52 | 0.0 | 0.0 | 0.00 | 0.00 | 0.00 | 93 | 1008.6 | |
| 20260507035609 | 52 | 0.0 | 0.0 | 0.00 | 0.00 | 0.00 | 93 | 1008.5 | |
| 20260507034606 | 52 | 0.0 | 0.0 | 0.00 | 0.00 | 0.00 | 93 | 1008.4 | |
| 20260507033606 | 52 | 0.0 | 0.0 | 0.00 | 0.00 | 0.00 | 93 | 1008.4 | |
| 20260507032606 | 52 | 0.0 | 0.0 | 0.00 | 0.00 | 0.00 | 93 | 1008.4 | |
| 20260507031609 | 52 | 0.0 | 0.0 | 0.00 | 0.00 | 0.00 | 93 | 1008.4 | |
| 20260507030604 | 52 | 0.0 | 0.0 | 0.00 | 0.00 | 0.00 | 93 | 1008.4 | |
| 20260507025605 | 52 | 0.0 | 0.0 | 0.00 | 0.00 | 0.00 | 93 | 1008.4 | |
| 20260507024604 | 52 | 0.0 | 0.0 | 0.00 | 0.00 | 0.00 | 93 | 1008.3 | |
| 20260507023604 | 52 | 0.0 | 0.0 | 0.00 | 0.00 | 0.00 | 93 | 1008.3 | |
| 20260507022605 | 52 | 0.0 | 0.0 | 0.00 | 0.00 | 0.00 | 93 | 1008.3 | |
| 20260507021605 | 52 | 0.0 | 0.0 | 0.00 | 0.00 | 0.00 | 93 | 1008.3 | |
| 20260507020604 | 52 | 0.0 | 0.0 | 0.00 | 0.00 | 0.00 | 92 | 1008.2 | |
| 20260507015604 | 52 | 0.0 | 0.0 | 0.00 | 0.00 | 0.00 | 92 | 1008.2 | |
| 20260507014604 | 52 | 0.0 | 0.0 | 0.00 | 0.00 | 0.00 | 92 | 1008.2 | |
| 20260507013604 | 52 | 0.0 | 0.0 | 0.00 | 0.00 | 0.00 | 92 | 1008.2 | |
| 20260507012604 | 52 | 0.0 | 0.0 | 0.00 | 0.00 | 0.00 | 93 | 1008.1 | |
| 20260507011604 | 52 | 0.0 | 0.0 | 0.00 | 0.00 | 0.00 | 92 | 1008.0 | |
| 20260507010604 | 52 | 0.0 | 0.0 | 0.00 | 0.00 | 0.00 | 91 | 1008.1 | |
| 20260507005604 | 52 | 0.0 | 0.0 | 0.00 | 0.00 | 0.00 | 91 | 1008.2 | |
| 20260507004604 | 51 | 0.0 | 0.0 | 0.00 | 0.00 | 0.00 | 91 | 1007.7 | |
| 20260507003605 | 51 | 0.0 | 0.0 | 0.00 | 0.00 | 0.00 | 92 | 1007.2 | |
| 20260507002604 | 51 | 0.0 | 0.0 | 0.00 | 0.00 | 0.00 | 92 | 1006.7 | |
| 20260507001604 | 51 | 0.0 | 0.0 | 0.00 | 0.00 | 0.00 | 92 | 1006.7 | |
| 20260507000604 | 51 | 0.0 | 0.0 | 0.00 | 0.00 | 0.00 | 92 | 1006.7 | |
| 20260506235609 | 51 | 0.0 | 0.0 | 0.00 | 0.00 | 0.00 | 92 | 1006.9 | |
| 20260506233605 | 51 | 0.0 | 0.0 | 0.00 | 0.00 | 0.00 | 92 | 1007.2 | |
| 20260506232605 | 52 | 0.0 | 0.0 | 0.00 | 0.00 | 0.00 | 91 | 1007.9 | |
| 20260506231605 | 52 | 0.0 | 0.0 | 0.00 | 0.00 | 0.00 | 91 | 1008.3 | |
| 20260506230604 | 52 | 0.0 | 0.0 | 0.00 | 0.00 | 0.00 | 91 | 1008.6 | |
| 20260506225604 | 52 | 0.0 | 0.0 | 0.00 | 0.00 | 0.00 | 92 | 1008.5 | |
| 20260506224604 | 52 | 0.0 | 0.0 | 0.00 | 0.00 | 0.00 | 92 | 1008.4 | |
| 20260506223605 | 52 | 0.0 | 0.0 | 0.00 | 0.00 | 0.00 | 92 | 1008.3 | |
| 20260506222605 | 52 | 0.0 | 0.0 | 0.00 | 0.00 | 0.00 | 92 | 1007.2 | |
| 20260506221604 | 52 | 0.0 | 0.0 | 0.00 | 0.00 | 0.00 | 92 | 1007.4 | |
| 20260506220604 | 52 | 0.0 | 0.0 | 0.00 | 0.00 | 0.00 | 92 | 1007.0 | |
| 20260506215604 | 52 | 0.0 | 0.0 | 0.00 | 0.00 | 0.00 | 91 | 1007.4 |